Regional Weather Roundup
Issued by NWS

Home | Current Version | Previous Version | Text Only | Print | Product List | Glossary On
Versions: 1 2 3 4 5 6 7 8 9 10 11 12 13 14 15 16 17 18 19 20 21 22 23 24 25 26 27 28 29 30 31 32 33 34 35 36 37 38 39 40 41 42 43 44 45 46 47 48 49 50
000
ASUS43 KFSD 270902
RWRSD

WEATHER ROUNDUP FOR SOUTH DAKOTA
NATIONAL WEATHER SERVICE SIOUX FALLS SD
400 AM CDT WED AUG 27 2014

NOTE: "FAIR" INDICATES FEW OR NO CLOUDS BELOW 12,000 FEET WITH NO
SIGNIFICANT WEATHER AND/OR OBSTRUCTIONS TO VISIBILITY.


SDZ001>005-009-010-012>017-271000-
NORTHWEST AND NORTH CENTRAL SOUTH DAKOTA

CITY           SKY/WX    TMP DP  RH WIND       PRES   REMARKS
BUFFALO          N/A     52  50  93 SE3       30.10S
FAITH            N/A     52  51  97 NE5       30.14F
MOBRIDGE       CLEAR     53  52  96 E8        30.14S
$$

SDZ012>016-024>037-041>051-057-063-072>074-271000-
SOUTHWEST AND SOUTH CENTRAL SOUTH DAKOTA

CITY           SKY/WX    TMP DP  RH WIND       PRES   REMARKS
RAPID CTY ARPT CLOUDY    56  53  90 E5        30.16S
PIERRE         CLOUDY    59  55  87 E9        30.11S
CUSTER         CLOUDY    58  54  86 E7        30.24F
ELLSWORTH AFB  MOCLDY    58  54  86 E5        30.15F
PHILIP         MOCLDY    57  53  86 NE6       30.11F
PINE RIDGE     MOCLDY    55  55 100 MISG      30.14S FOG
WINNER         CLOUDY    65  63  93 SE7       30.11F
$$

SDZ004>011-016>023-039-040-271000-
NORTHEAST SOUTH DAKOTA

CITY           SKY/WX    TMP DP  RH WIND       PRES   REMARKS
ABERDEEN       CLOUDY    58  56  93 E5        30.16F
WATERTOWN      PTCLDY    55  53  93 E6        30.18S
SISSETON         N/A     56  55  97 E3        30.18S
$$

SDZ017-020-022-023-036>040-048>070-271000-
SOUTHEAST SOUTH DAKOTA

CITY           SKY/WX    TMP DP  RH WIND       PRES   REMARKS
SIOUX FALLS    PTCLDY    59  57  93 E7        30.16F
HURON          MOCLDY    59  57  93 E3        30.15R
CHAMBERLAIN    PTCLDY    60  59  96 E8        30.12S
MITCHELL       PTCLDY    58  57  97 E6        30.14F
YANKTON        PTCLDY    59  57  94 E6        30.15S
$$

ABBREVIATIONS USED IN REMARKS
   TC - TEMPERATURE IN CELSIUS
  WCI - WIND CHILL INDEX
   HX - HEAT INDEX
  VSB - VISIBILITY




USA.gov is the U.S. government's official web portal to all federal, state and local government web resources and services.